When you browse on this site, cookies collect data to enhance your experience and personalize the content and advertising you see.
Visit our Privacy Policy to learn more. By continuing to use the site, you agree to this use of cookies and data.
  • In Hungary
  • List of Countries
  • For 7 days
  • Water Temperature
  • Satellite Maps
  • Weather Map
  • News
  • Weather Widgets
  • user-avatar
    Login

    Hourly Weather Karazirikovo

    Today, 21 November, Wednesday

    Time Temperature Precipitation Wind Pressure Humidity
    00:00 -5°C° 0 mm 3 mps 748 mmHg 92%
    01:00 -5°C° 0 mm 3 mps 748 mmHg 91%
    02:00 -5°C° 0 mm 3 mps 747 mmHg 90%
    03:00 -5°C° 0 mm 4 mps 747 mmHg 89%
    04:00 -5°C° 0 mm 3 mps 746 mmHg 90%
    05:00 -5°C° 0 mm 4 mps 745 mmHg 90%
    06:00 -7°C° 0 mm 5 mps 745 mmHg 89%
    07:00 -7°C° 0 mm 5 mps 744 mmHg 89%
    08:00 -8°C° 0.2 mm 6 mps 743 mmHg 89%
    09:00 -8°C° 0.2 mm 6 mps 743 mmHg 89%
    10:00 -6°C° 0 mm 6 mps 742 mmHg 89%
    11:00 -6°C° 0.5 mm 6 mps 741 mmHg 89%
    12:00 -6°C° 0.5 mm 6 mps 740 mmHg 90%
    13:00 -6°C° 0.5 mm 6 mps 740 mmHg 90%
    14:00 -6°C° 0.3 mm 6 mps 739 mmHg 90%
    15:00 -6°C° 0.3 mm 5 mps 739 mmHg 90%
    16:00 -6°C° 0.3 mm 5 mps 738 mmHg 90%
    17:00 -6°C° 0.2 mm 5 mps 738 mmHg 90%
    18:00 -6°C° 0.2 mm 5 mps 738 mmHg 91%
    19:00 -6°C° 0.2 mm 5 mps 738 mmHg 92%
    20:00 -6°C° 0.2 mm 6 mps 738 mmHg 89%
    21:00 -6°C° 0.2 mm 6 mps 738 mmHg 86%
    22:00 -8°C° 0.2 mm 7 mps 737 mmHg 83%
    23:00 -9°C° 0 mm 6 mps 738 mmHg 84%

    Tomorrow, 22 November, Thursday

    Time Temperature Precipitation Wind Pressure Humidity
    00:00 -10°C° 0 mm 6 mps 738 mmHg 84%
    01:00 -11°C° 0 mm 6 mps 738 mmHg 85%
    02:00 -11°C° 0 mm 5 mps 739 mmHg 86%
    03:00 -12°C° 0 mm 5 mps 739 mmHg 87%
    04:00 -12°C° 0 mm 5 mps 739 mmHg 88%
    05:00 -12°C° 0 mm 5 mps 739 mmHg 89%
    06:00 -12°C° 0 mm 5 mps 739 mmHg 91%
    07:00 -12°C° 0 mm 5 mps 739 mmHg 92%
    08:00 -11°C° 0 mm 5 mps 739 mmHg 91%
    09:00 -11°C° 0 mm 5 mps 739 mmHg 91%
    10:00 -11°C° 0 mm 5 mps 739 mmHg 90%
    11:00 -10°C° 0 mm 5 mps 739 mmHg 89%
    12:00 -10°C° 0 mm 5 mps 738 mmHg 88%
    13:00 -10°C° 0 mm 5 mps 738 mmHg 86%
    14:00 -8°C° 0.1 mm 5 mps 737 mmHg 87%
    15:00 -9°C° 0.1 mm 6 mps 737 mmHg 88%
    16:00 -9°C° 0.1 mm 6 mps 736 mmHg 88%
    17:00 -9°C° 0.4 mm 6 mps 736 mmHg 89%
    18:00 -9°C° 0.4 mm 7 mps 735 mmHg 89%
    19:00 -10°C° 0.4 mm 8 mps 734 mmHg 89%
    20:00 -8°C° 0.3 mm 7 mps 734 mmHg 89%
    21:00 -8°C° 0.3 mm 7 mps 733 mmHg 88%
    22:00 -8°C° 0.3 mm 7 mps 733 mmHg 88%
    23:00 -9°C° 0.2 mm 7 mps 732 mmHg 88%

    Day after tomorrow, 23 November, Friday

    Time Temperature Precipitation Wind Pressure Humidity
    00:00 -9°C° 0.2 mm 6 mps 731 mmHg 89%
    01:00 -9°C° 0.2 mm 6 mps 731 mmHg 90%
    02:00 -9°C° 0.4 mm 6 mps 730 mmHg 90%
    03:00 -9°C° 0.4 mm 6 mps 730 mmHg 91%
    04:00 -9°C° 0.4 mm 6 mps 729 mmHg 91%
    05:00 -9°C° 0.8 mm 6 mps 729 mmHg 92%
    06:00 -9°C° 0.8 mm 6 mps 729 mmHg 92%
    07:00 -9°C° 0.8 mm 6 mps 729 mmHg 93%
    08:00 -10°C° 0.4 mm 6 mps 729 mmHg 93%
    09:00 -10°C° 0.4 mm 6 mps 729 mmHg 92%
    10:00 -11°C° 0.4 mm 6 mps 730 mmHg 92%
    11:00 -10°C° 0.2 mm 5 mps 730 mmHg 92%
    12:00 -10°C° 0.2 mm 5 mps 731 mmHg 92%
    13:00 -9°C° 0.2 mm 4 mps 731 mmHg 92%
    14:00 -11°C° 0.3 mm 5 mps 732 mmHg 92%
    15:00 -12°C° 0.3 mm 7 mps 733 mmHg 91%
    16:00 -12°C° 0.3 mm 8 mps 734 mmHg 91%
    17:00 -13°C° 0.2 mm 8 mps 735 mmHg 89%
    18:00 -15°C° 0.2 mm 9 mps 737 mmHg 87%
    19:00 -15°C° 0.2 mm 10 mps 738 mmHg 84%
    20:00 -16°C° 0.1 mm 9 mps 739 mmHg 84%
    21:00 -17°C° 0.1 mm 8 mps 740 mmHg 84%
    22:00 -18°C° 0.1 mm 8 mps 741 mmHg 84%
    23:00 -18°C° 0 mm 7 mps 742 mmHg 87%

    24 November, Saturday

    Time Temperature Precipitation Wind Pressure Humidity
    00:00 -18°C° 0 mm 6 mps 743 mmHg 89%
    01:00 -19°C° 0 mm 5 mps 744 mmHg 92%
    02:00 -19°C° 0 mm 5 mps 745 mmHg 93%
    03:00 -19°C° 0 mm 4 mps 746 mmHg 94%
    04:00 -19°C° 0 mm 4 mps 746 mmHg 95%
    05:00 -19°C° 0 mm 4 mps 746 mmHg 95%
    06:00 -18°C° 0 mm 4 mps 747 mmHg 95%
    07:00 -18°C° 0 mm 4 mps 747 mmHg 96%
    08:00 -16°C° 0 mm 4 mps 747 mmHg 94%
    09:00 -15°C° 0 mm 5 mps 747 mmHg 93%
    10:00 -14°C° 0 mm 5 mps 748 mmHg 92%
    11:00 -13°C° 0 mm 5 mps 747 mmHg 91%
    12:00 -12°C° 0 mm 6 mps 747 mmHg 90%
    13:00 -12°C° 0 mm 6 mps 747 mmHg 89%
    14:00 -12°C° 0 mm 7 mps 747 mmHg 88%
    15:00 -12°C° 0 mm 7 mps 746 mmHg 87%
    16:00 -12°C° 0 mm 7 mps 746 mmHg 87%
    17:00 -12°C° 0.1 mm 8 mps 746 mmHg 86%
    18:00 -11°C° 0.1 mm 8 mps 746 mmHg 86%
    19:00 -11°C° 0.1 mm 8 mps 746 mmHg 86%
    20:00 -10°C° 0.1 mm 8 mps 746 mmHg 86%
    21:00 -10°C° 0.1 mm 8 mps 745 mmHg 86%
    22:00 -9°C° 0.1 mm 7 mps 745 mmHg 86%
    23:00 -8°C° 0 mm 7 mps 745 mmHg 86%

    25 November, Sunday

    Time Temperature Precipitation Wind Pressure Humidity
    00:00 -8°C° 0 mm 7 mps 745 mmHg 87%
    01:00 -8°C° 0 mm 7 mps 745 mmHg 87%
    02:00 -8°C° 0.1 mm 7 mps 745 mmHg 87%
    03:00 -8°C° 0.1 mm 7 mps 745 mmHg 87%
    04:00 -8°C° 0.1 mm 7 mps 745 mmHg 87%
    05:00 -7°C° 0.1 mm 7 mps 744 mmHg 88%
    06:00 -7°C° 0.1 mm 7 mps 744 mmHg 88%
    07:00 -7°C° 0.1 mm 7 mps 744 mmHg 89%
    08:00 -7°C° 0.2 mm 7 mps 744 mmHg 88%
    09:00 -7°C° 0.2 mm 8 mps 744 mmHg 88%
    10:00 -7°C° 0.2 mm 8 mps 744 mmHg 88%
    11:00 -7°C° 0.1 mm 8 mps 744 mmHg 87%
    12:00 -6°C° 0.1 mm 7 mps 745 mmHg 86%
    13:00 -6°C° 0.1 mm 7 mps 745 mmHg 85%
    14:00 -6°C° 0 mm 6 mps 746 mmHg 86%
    15:00 -8°C° 0 mm 6 mps 746 mmHg 86%
    16:00 -7°C° 0 mm 5 mps 747 mmHg 87%
    17:00 -8°C° 0 mm 4 mps 748 mmHg 88%
    18:00 -9°C° 0 mm 4 mps 748 mmHg 90%
    19:00 -10°C° 0 mm 4 mps 749 mmHg 91%
    20:00 -10°C° 0 mm 3 mps 749 mmHg 92%
    21:00 -10°C° 0 mm 3 mps 749 mmHg 93%
    22:00 -12°C° 0 mm 3 mps 749 mmHg 93%
    23:00 -12°C° 0 mm 3 mps 749 mmHg 94%

    26 November, Monday

    Time Temperature Precipitation Wind Pressure Humidity
    00:00 -12°C° 0 mm 3 mps 749 mmHg 94%
    01:00 -10°C° 0 mm 2 mps 749 mmHg 95%
    02:00 -10°C° 0 mm 2 mps 749 mmHg 95%
    03:00 -10°C° 0 mm 2 mps 749 mmHg 95%
    04:00 -10°C° 0 mm 2 mps 748 mmHg 96%
    05:00 -10°C° 0.1 mm 3 mps 748 mmHg 96%
    06:00 -9°C° 0.1 mm 3 mps 747 mmHg 96%
    07:00 -8°C° 0.1 mm 3 mps 747 mmHg 96%
    08:00 -8°C° 0.2 mm 4 mps 747 mmHg 95%
    09:00 -8°C° 0.2 mm 4 mps 746 mmHg 94%
    10:00 -7°C° 0.2 mm 5 mps 746 mmHg 93%
    11:00 -7°C° 0.3 mm 5 mps 745 mmHg 92%
    12:00 -6°C° 0.3 mm 5 mps 745 mmHg 92%
    13:00 -5°C° 0.3 mm 5 mps 744 mmHg 92%
    14:00 -5°C° 0.4 mm 5 mps 743 mmHg 91%
    15:00 -4°C° 0.4 mm 5 mps 743 mmHg 91%
    16:00 -4°C° 0.4 mm 5 mps 742 mmHg 90%
    17:00 -4°C° 0.3 mm 6 mps 742 mmHg 90%
    18:00 -4°C° 0.3 mm 6 mps 741 mmHg 90%
    19:00 -4°C° 0.3 mm 6 mps 740 mmHg 90%
    20:00 -4°C° 0.6 mm 7 mps 740 mmHg 90%
    21:00 -4°C° 0.6 mm 7 mps 739 mmHg 91%
    22:00 -5°C° 0.6 mm 8 mps 739 mmHg 91%
    23:00 -5°C° 0.7 mm 8 mps 738 mmHg 91%
    Show more